This demonstration page uses our WeatherBlox Daily Observations layout. Learn more.

38.89511, -77.03637

Hourly Observations for August 6, 2015

Temp ( °F °C ) Dew Point ( °F °C ) Humidity (%) Winds ( mph kmh ) Pressure ( in mb ) Visibility ( mi km ) Precip ( " mm )
12:52 am 00:52 Mostly Cloudy 79 26 61 16 54 54 NNW 6 9 30 1016 10 16.09344 0 0
1:52 am 01:52 Cloudy 79 26 59 15 51 51 NNW 6 9 29.97 1015 10 16.09344 0 0
2:52 am 02:52 Mostly Cloudy 79 26 61 16 54 54 N 5 7 29.97 1015 10 16.09344 0 0
3:24 am 03:24 Mostly Cloudy 77 25 61 16 57 57 NNW 5 7 29.97 1015 10 16.09344 0 0
3:52 am 03:52 Mostly Cloudy 75 24 61 16 61 61 NNW 6 9 29.97 1015 10 16.09344 0 0
4:52 am 04:52 Mostly Cloudy 75 24 61 16 61 61 N 5 7 29.97 1015 10 16.09344 0 0
5:52 am 05:52 Cloudy 77 25 57 14 51 51 NNE 8 13 29.97 1015 10 16.09344 0 0
6:52 am 06:52 Cloudy 75 24 57 14 54 54 NNE 12 19 29.97 1015 10 16.09344 0 0
7:52 am 07:52 Cloudy 77 25 57 14 51 51 NNE 7 11 30 1016 10 16.09344 0 0
9:52 am 09:52 Cloudy 81 27 63 17 54 54 NE 7 11 29.97 1015 10 16.09344 0 0
10:52 am 10:52 Cloudy 82 28 63 17 51 51 NE 7 11 29.97 1015 10 16.09344 0 0
11:52 am 11:52 Cloudy 84 29 63 17 48 48 N 5 7 29.97 1015 10 16.09344 0 0
12:52 pm 12:52 Cloudy 82 28 63 17 51 51 ENE 3 6 29.97 1015 10 16.09344 0 0
1:52 pm 13:52 Cloudy 84 29 61 16 45 45 NE 3 6 29.94 1014 10 16.09344 0 0
2:52 pm 14:52 Cloudy 82 28 61 16 48 48 ENE 3 6 29.94 1014 10 16.09344 0.001 0.001
3:52 pm 15:52 Cloudy 84 29 61 16 45 45 NE 6 9 29.94 1014 9 14.484096 0 0
4:14 pm 16:14 Cloudy 84 29 61 16 45 45 N 7 11 29.94 1014 10 16.09344 0 0
4:52 pm 16:52 Cloudy with Light Rain 82 28 64 18 55 55 NNW 14 22 29.91 1013 10 16.09344 0.001 0.001
5:52 pm 17:52 Cloudy 81 27 63 17 54 54 N 13 20 29.91 1013 10 16.09344 0.001 0.001
6:52 pm 18:52 Cloudy 81 27 59 15 48 48 NNE 8 13 29.91 1013 10 16.09344 0 0
7:52 pm 19:52 Cloudy 81 27 61 16 51 51 NNE 8 13 29.88 1012 10 16.09344 0 0
8:52 pm 20:52 Cloudy 79 26 63 17 58 58 NNE 8 13 29.88 1012 10 16.09344 0.001 0.001
9:52 pm 21:52 Cloudy 79 26 64 18 61 61 NE 5 7 29.91 1013 10 16.09344 0 0
10:06 pm 22:06 Cloudy 79 26 63 17 58 58 N 8 13 29.91 1013 10 16.09344 0 0
10:52 pm 22:52 Cloudy 79 26 64 18 61 61 NNW 8 13 29.91 1013 10 16.09344 0 0
11:52 pm 23:52 Cloudy with Light Rain 75 24 64 18 69 69 NNE 9 15 29.88 1012 10 16.09344 0.001 0.001

Powered by AerisWeather